| time (UTC) | temp F | wind direction | speed MPH | gust MPH | rain 1hr in | rain 24hr in | rain mn in | humidity % | barometer mb |
| 20260905095218 | 69 | 348 | 4.0 | 11.0 | 0.00 | 0.39 | 0.00 | 95 | 1014.8 |
| 20260905094945 | 69 | 350 | 5.0 | 11.0 | 0.00 | 0.39 | 0.00 | 95 | 1014.7 |
| 20260905094214 | 69 | 26 | 6.0 | 11.0 | 0.00 | 0.40 | 0.00 | 95 | 1014.7 |
| 20260905093714 | 70 | 42 | 4.0 | 11.0 | 0.00 | 0.40 | 0.00 | 94 | 1014.5 |
| 20260905093212 | 70 | 46 | 5.0 | 12.0 | 0.00 | 0.40 | 0.00 | 95 | 1014.5 |
| 20260905092712 | 70 | 26 | 5.0 | 12.0 | 0.00 | 0.40 | 0.00 | 94 | 1014.5 |
| 20260905092209 | 70 | 311 | 5.0 | 10.0 | 0.00 | 0.41 | 0.00 | 94 | 1014.5 |
| 20260905091704 | 70 | 26 | 6.0 | 10.0 | 0.00 | 0.41 | 0.00 | 94 | 1014.5 |
| 20260905091205 | 71 | 5 | 5.0 | 12.0 | 0.00 | 0.43 | 0.00 | 94 | 1014.4 |
| 20260905090706 | 71 | 23 | 4.0 | 12.0 | 0.00 | 0.50 | 0.00 | 94 | 1014.5 |
| 20260905090205 | 71 | 279 | 5.0 | 14.0 | 0.00 | 0.55 | 0.00 | 94 | 1014.5 |
| 20260905085704 | 71 | 327 | 5.0 | 14.0 | 0.00 | 0.62 | 0.00 | 94 | 1014.4 |
| 20260905085205 | 71 | 24 | 3.0 | 9.0 | 0.00 | 0.65 | 0.00 | 94 | 1014.5 |
| 20260905084709 | 71 | 36 | 3.0 | 8.0 | 0.00 | 0.71 | 0.00 | 94 | 1014.5 |
| 20260905084159 | 71 | 23 | 2.0 | 8.0 | 0.00 | 0.71 | 0.00 | 94 | 1014.4 |
| 20260905083658 | 71 | 20 | 1.0 | 4.0 | 0.00 | 0.73 | 0.00 | 94 | 1014.4 |
| 20260905083158 | 71 | 21 | 2.0 | 5.0 | 0.00 | 0.73 | 0.00 | 94 | 1014.3 |
| 20260905082659 | 71 | 44 | 2.0 | 6.0 | 0.00 | 0.74 | 0.00 | 94 | 1014.4 |
| 20260905082158 | 71 | 52 | 2.0 | 6.0 | 0.00 | 0.74 | 0.00 | 94 | 1014.4 |
| 20260905081659 | 71 | 5 | 1.0 | 4.0 | 0.00 | 0.74 | 0.00 | 94 | 1014.3 |
| 20260905081156 | 71 | 36 | 2.0 | 5.0 | 0.00 | 0.74 | 0.00 | 94 | 1014.3 |
| 20260905080655 | 71 | 40 | 2.0 | 5.0 | 0.00 | 0.74 | 0.00 | 94 | 1014.3 |
| 20260905080152 | 71 | 29 | 1.0 | 3.0 | 0.00 | 0.74 | 0.00 | 94 | 1014.2 |
| 20260905075652 | 71 | 26 | 1.0 | 5.0 | 0.00 | 0.74 | 0.00 | 94 | 1014.3 |
| 20260905075153 | 71 | 25 | 2.0 | 5.0 | 0.00 | 0.75 | 0.00 | 94 | 1014.3 |
| 20260905074654 | 71 | 37 | 2.0 | 5.0 | 0.00 | 0.75 | 0.00 | 94 | 1014.3 |
| 20260905074149 | 71 | 355 | 2.0 | 5.0 | 0.00 | 0.77 | 0.00 | 94 | 1014.2 |
| 20260905073648 | 71 | 58 | 1.0 | 4.0 | 0.00 | 0.79 | 0.00 | 94 | 1014.2 |
| 20260905073419 | 71 | 61 | 1.0 | 4.0 | 0.00 | 0.81 | 0.00 | 94 | 1014.1 |
| 20260905072647 | 71 | 62 | 1.0 | 4.0 | 0.00 | 0.84 | 0.00 | 95 | 1014.0 |
| 20260905072146 | 71 | 62 | 1.0 | 4.0 | 0.00 | 0.85 | 0.00 | 94 | 1014.1 |
| 20260905071918 | 71 | 42 | 2.0 | 5.0 | 0.00 | 0.85 | 0.00 | 94 | 1014.1 |
| 20260905071142 | 71 | 39 | 2.0 | 5.0 | 0.00 | 0.86 | 0.00 | 94 | 1014.1 |
| 20260905070642 | 71 | 69 | 2.0 | 4.0 | 0.00 | 0.86 | 0.00 | 95 | 1014.2 |
| 20260905070144 | 71 | 59 | 2.0 | 4.0 | 0.00 | 0.86 | 0.00 | 94 | 1014.2 |
| 20260905065642 | 71 | 49 | 1.0 | 4.0 | 0.00 | 0.86 | 0.00 | 95 | 1014.3 |
| 20260905065140 | 72 | 36 | 2.0 | 4.0 | 0.00 | 0.87 | 0.00 | 94 | 1014.2 |
| 20260905064645 | 72 | 47 | 2.0 | 4.0 | 0.00 | 0.89 | 0.00 | 94 | 1014.2 |
| 20260905064641 | 71 | 34 | 2.0 | 4.0 | 0.00 | 0.88 | 0.00 | 94 | 1014.2 |
| 20260905063635 | 72 | 42 | 2.0 | 5.0 | 0.00 | 0.90 | 0.00 | 94 | 1014.2 |
| 20260905063134 | 72 | 71 | 2.0 | 6.0 | 0.00 | 0.90 | 0.00 | 94 | 1014.2 |
| 20260905062637 | 72 | 69 | 2.0 | 6.0 | 0.00 | 0.91 | 0.00 | 94 | 1014.3 |
| 20260905062134 | 72 | 67 | 2.0 | 4.0 | 0.00 | 0.92 | 0.00 | 94 | 1014.3 |
| 20260905061635 | 72 | 38 | 2.0 | 5.0 | 0.00 | 0.92 | 0.00 | 94 | 1014.3 |
| 20260905061132 | 72 | 38 | 2.0 | 5.0 | 0.00 | 0.92 | 0.00 | 94 | 1014.3 |
| 20260905060630 | 72 | 53 | 2.0 | 5.0 | 0.00 | 0.92 | 0.00 | 94 | 1014.2 |
| 20260905060128 | 72 | 57 | 2.0 | 6.0 | 0.00 | 0.92 | 0.00 | 94 | 1014.2 |
| 20260905055628 | 72 | 42 | 2.0 | 6.0 | 0.00 | 0.92 | 0.00 | 94 | 1014.2 |
| 20260905055129 | 72 | 57 | 2.0 | 7.0 | 0.00 | 0.92 | 0.00 | 94 | 1014.2 |
| 20260905054900 | 72 | 42 | 2.0 | 7.0 | 0.00 | 0.92 | 0.00 | 94 | 1014.2 |
| 20260905054126 | 72 | 46 | 2.0 | 7.0 | 0.00 | 0.92 | 0.00 | 94 | 1014.2 |
| 20260905053625 | 72 | 51 | 3.0 | 7.0 | 0.00 | 0.92 | 0.00 | 94 | 1014.3 |
| 20260905053123 | 72 | 42 | 2.0 | 7.0 | 0.00 | 0.92 | 0.00 | 94 | 1014.3 |
| 20260905052622 | 72 | 27 | 2.0 | 5.0 | 0.00 | 0.92 | 0.00 | 94 | 1014.3 |
| 20260905052122 | 72 | 78 | 2.0 | 5.0 | 0.00 | 0.92 | 0.00 | 94 | 1014.3 |
| 20260905051623 | 72 | 83 | 2.0 | 5.0 | 0.00 | 0.92 | 0.00 | 94 | 1014.2 |
| 20260905051120 | 72 | 35 | 2.0 | 5.0 | 0.00 | 0.92 | 0.00 | 94 | 1014.3 |
| 20260905050618 | 72 | 38 | 2.0 | 4.0 | 0.00 | 0.92 | 0.00 | 94 | 1014.3 |
| 20260905050116 | 72 | 55 | 2.0 | 4.0 | 0.00 | 0.92 | 0.00 | 94 | 1014.3 |
| 20260905045846 | 72 | 17 | 2.0 | 4.0 | 0.00 | 0.92 | 0.92 | 94 | 1014.3 |
| 20260905045114 | 72 | 51 | 1.0 | 3.0 | 0.00 | 0.92 | 0.92 | 94 | 1014.3 |
| 20260905044615 | 72 | 49 | 1.0 | 4.0 | 0.00 | 0.93 | 0.92 | 94 | 1014.1 |
| 20260905044108 | 73 | 65 | 1.0 | 4.0 | 0.00 | 0.93 | 0.92 | 94 | 1014.1 |
| 20260905043608 | 73 | 38 | 2.0 | 8.0 | 0.00 | 0.98 | 0.92 | 94 | 1014.2 |
| 20260905043108 | 73 | 38 | 2.0 | 8.0 | 0.00 | 1.00 | 0.92 | 94 | 1014.2 |
| 20260905042608 | 73 | 5 | 2.0 | 8.0 | 0.00 | 1.03 | 0.92 | 94 | 1014.2 |
| 20260905042340 | 73 | 80 | 2.0 | 7.0 | 0.00 | 1.05 | 0.92 | 94 | 1014.2 |
| 20260905041609 | 73 | 58 | 2.0 | 5.0 | 0.00 | 1.06 | 0.92 | 94 | 1014.2 |
| 20260905041102 | 73 | 68 | 2.0 | 5.0 | 0.00 | 1.06 | 0.92 | 94 | 1014.3 |
| 20260905040601 | 73 | 27 | 2.0 | 8.0 | 0.00 | 1.06 | 0.92 | 94 | 1014.2 |
| 20260905040100 | 73 | 49 | 2.0 | 8.0 | 0.00 | 1.06 | 0.92 | 94 | 1014.3 |
| 20260905035832 | 73 | 97 | 2.0 | 8.0 | 0.00 | 1.06 | 0.92 | 94 | 1014.2 |
| 20260905035100 | 73 | 98 | 2.0 | 8.0 | 0.00 | 1.06 | 0.92 | 94 | 1014.2 |
| 20260905034833 | 73 | 38 | 2.0 | 7.0 | 0.00 | 1.06 | 0.92 | 93 | 1014.1 |
| 20260905034326 | 73 | 56 | 3.0 | 9.0 | 0.00 | 1.06 | 0.92 | 93 | 1014.0 |
| 20260905033555 | 73 | 28 | 4.0 | 9.0 | 0.00 | 1.06 | 0.92 | 93 | 1013.9 |
| 20260905033328 | 73 | 62 | 4.0 | 9.0 | 0.00 | 1.06 | 0.92 | 93 | 1013.9 |
| 20260905032556 | 73 | 74 | 4.0 | 9.0 | 0.00 | 1.06 | 0.92 | 93 | 1013.9 |
| 20260905032056 | 73 | 65 | 3.0 | 8.0 | 0.00 | 1.06 | 0.92 | 93 | 1014.0 |
| 20260905031828 | 73 | 76 | 3.0 | 9.0 | 0.00 | 1.06 | 0.92 | 93 | 1014.1 |
| 20260905031101 | 73 | 30 | 3.0 | 7.0 | 0.00 | 1.06 | 0.92 | 93 | 1014.1 |
| 20260905031056 | 73 | 49 | 3.0 | 9.0 | 0.00 | 1.06 | 0.92 | 93 | 1014.2 |
| 20260905030050 | 74 | 41 | 2.0 | 6.0 | 0.00 | 1.09 | 0.92 | 92 | 1014.2 |
| 20260905025823 | 74 | 72 | 2.0 | 5.0 | 0.00 | 1.10 | 0.92 | 92 | 1014.1 |
| 20260905025047 | 74 | 67 | 2.0 | 5.0 | 0.00 | 1.12 | 0.92 | 92 | 1014.1 |
| 20260905024550 | 74 | 14 | 2.0 | 5.0 | 0.00 | 1.12 | 0.92 | 92 | 1014.2 |
| 20260905024046 | 74 | 355 | 2.0 | 5.0 | 0.00 | 1.14 | 0.92 | 92 | 1014.1 |
| 20260905023546 | 74 | 26 | 2.0 | 6.0 | 0.00 | 1.16 | 0.92 | 92 | 1013.9 |
| 20260905023047 | 74 | 46 | 2.0 | 6.0 | 0.00 | 1.17 | 0.92 | 91 | 1013.9 |
| 20260905022547 | 74 | 46 | 2.0 | 6.0 | 0.00 | 1.17 | 0.92 | 91 | 1013.9 |
| 20260905022045 | 74 | 24 | 2.0 | 6.0 | 0.00 | 1.17 | 0.92 | 91 | 1013.9 |
| 20260905021547 | 74 | 58 | 2.0 | 7.0 | 0.00 | 1.17 | 0.92 | 91 | 1013.7 |
| 20260905021052 | 74 | 86 | 3.0 | 7.0 | 0.00 | 1.17 | 0.92 | 91 | 1013.7 |
| 20260905020817 | 74 | 330 | 3.0 | 5.0 | 0.00 | 1.17 | 0.92 | 90 | 1013.8 |
| 20260905020044 | 74 | 315 | 2.0 | 5.0 | 0.00 | 1.17 | 0.92 | 90 | 1013.9 |
| 20260905015814 | 74 | 96 | 2.0 | 6.0 | 0.00 | 1.17 | 0.92 | 90 | 1013.7 |
| 20260905015313 | 74 | 96 | 2.0 | 6.0 | 0.00 | 1.17 | 0.92 | 90 | 1013.7 |
| 20260905014542 | 74 | 102 | 2.0 | 3.0 | 0.00 | 1.17 | 0.92 | 90 | 1013.8 |
| 20260905014313 | 74 | 105 | 2.0 | 4.0 | 0.00 | 1.17 | 0.92 | 90 | 1013.7 |
| 20260905014156 | 74 | 107 | 4.0 | 7.0 | 0.00 | 1.17 | 0.92 | 90 | 1013.7 |
| 20260905013041 | 74 | 92 | 5.0 | 9.0 | 0.00 | 1.17 | 0.92 | 89 | 1013.5 |
| 20260905013037 | 74 | 107 | 4.0 | 9.0 | 0.00 | 1.17 | 0.92 | 90 | 1013.6 |
| 20260905012039 | 74 | 84 | 5.0 | 9.0 | 0.00 | 1.17 | 0.92 | 89 | 1013.6 |
| 20260905011538 | 74 | 115 | 6.0 | 10.0 | 0.00 | 1.17 | 0.92 | 89 | 1013.5 |
| 20260905011038 | 74 | 79 | 6.0 | 10.0 | 0.00 | 1.17 | 0.92 | 89 | 1013.3 |
| 20260905010539 | 74 | 80 | 5.0 | 9.0 | 0.00 | 1.17 | 0.92 | 89 | 1013.4 |
| 20260905010304 | 74 | 103 | 4.0 | 8.0 | 0.00 | 1.17 | 0.92 | 89 | 1013.3 |
| 20260905005535 | 75 | 117 | 3.0 | 7.0 | 0.00 | 1.17 | 0.92 | 90 | 1013.2 |
| 20260905005035 | 75 | 99 | 4.0 | 6.0 | 0.00 | 1.17 | 0.92 | 90 | 1013.3 |
| 20260905004805 | 75 | 103 | 4.0 | 8.0 | 0.00 | 1.17 | 0.92 | 90 | 1013.3 |
| 20260905004034 | 75 | 124 | 5.0 | 8.0 | 0.00 | 1.17 | 0.92 | 90 | 1013.3 |
| 20260905003535 | 75 | 102 | 5.0 | 8.0 | 0.00 | 1.17 | 0.92 | 90 | 1013.4 |
| 20260905003030 | 75 | 107 | 5.0 | 8.0 | 0.00 | 1.17 | 0.92 | 90 | 1013.4 |
| 20260905002803 | 75 | 94 | 4.0 | 8.0 | 0.00 | 1.17 | 0.92 | 90 | 1013.4 |
| 20260905002305 | 75 | 96 | 5.0 | 9.0 | 0.00 | 1.17 | 0.92 | 89 | 1013.3 |
| 20260905001530 | 75 | 114 | 5.0 | 9.0 | 0.00 | 1.17 | 0.92 | 89 | 1013.4 |
| 20260905001031 | 75 | 98 | 4.0 | 8.0 | 0.00 | 1.17 | 0.92 | 89 | 1013.3 |
| 20260905000531 | 75 | 84 | 4.0 | 8.0 | 0.00 | 1.17 | 0.92 | 89 | 1013.3 |
| 20260905000028 | 75 | 80 | 4.0 | 8.0 | 0.00 | 1.17 | 0.92 | 88 | 1013.3 |
| 20260904235527 | 75 | 62 | 4.0 | 8.0 | 0.00 | 1.17 | 0.92 | 88 | 1013.2 |
| 20260904235029 | 75 | 74 | 4.0 | 8.0 | 0.00 | 1.17 | 0.92 | 88 | 1013.1 |
| 20260904234528 | 75 | 82 | 4.0 | 8.0 | 0.00 | 1.17 | 0.92 | 87 | 1013.3 |
| 20260904234028 | 75 | 76 | 5.0 | 9.0 | 0.00 | 1.17 | 0.92 | 87 | 1013.0 |
| 20260904233526 | 75 | 96 | 5.0 | 10.0 | 0.00 | 1.17 | 0.92 | 87 | 1013.1 |
| 20260904233021 | 76 | 65 | 7.0 | 12.0 | 0.00 | 1.17 | 0.92 | 87 | 1013.0 |
| 20260904232519 | 76 | 86 | 8.0 | 12.0 | 0.00 | 1.17 | 0.92 | 87 | 1012.8 |
| 20260904232021 | 76 | 63 | 7.0 | 12.0 | 0.00 | 1.17 | 0.92 | 87 | 1012.7 |
| 20260904231516 | 76 | 105 | 7.0 | 12.0 | 0.00 | 1.17 | 0.92 | 87 | 1012.8 |
| 20260904231016 | 76 | 96 | 6.0 | 12.0 | 0.00 | 1.17 | 0.92 | 87 | 1012.9 |
| 20260904230510 | 76 | 79 | 5.0 | 11.0 | 0.00 | 1.17 | 0.92 | 86 | 1013.0 |
| 20260904230009 | 76 | 44 | 6.0 | 11.0 | 0.00 | 1.17 | 0.92 | 86 | 1012.9 |
| 20260904225508 | 76 | 78 | 7.0 | 14.0 | 0.00 | 1.17 | 0.92 | 86 | 1012.7 |
| 20260904225238 | 77 | 92 | 8.0 | 14.0 | 0.00 | 1.17 | 0.92 | 87 | 1012.6 |
| 20260904224506 | 77 | 61 | 8.0 | 12.0 | 0.00 | 1.17 | 0.92 | 87 | 1012.6 |
| 20260904224007 | 77 | 84 | 9.0 | 16.0 | 0.00 | 1.17 | 0.92 | 87 | 1012.5 |
| 20260904223504 | 77 | 89 | 8.0 | 16.0 | 0.00 | 1.17 | 0.92 | 86 | 1012.4 |
| 20260904223006 | 78 | 92 | 6.0 | 13.0 | 0.00 | 1.17 | 0.92 | 86 | 1012.4 |
| 20260904222503 | 78 | 76 | 5.0 | 12.0 | 0.00 | 1.17 | 0.92 | 86 | 1012.4 |
| 20260904222003 | 78 | 85 | 5.0 | 12.0 | 0.00 | 1.17 | 0.92 | 86 | 1012.3 |
| 20260904221504 | 79 | 94 | 5.0 | 11.0 | 0.00 | 1.17 | 0.92 | 85 | 1012.2 |
| 20260904221002 | 79 | 70 | 4.0 | 10.0 | 0.00 | 1.17 | 0.92 | 85 | 1012.1 |
| 20260904220502 | 80 | 55 | 4.0 | 10.0 | 0.00 | 1.17 | 0.92 | 85 | 1012.1 |
| 20260904220228 | 80 | 100 | 3.0 | 10.0 | 0.00 | 1.17 | 0.92 | 84 | 1012.1 |
| 20260904215457 | 80 | 64 | 4.0 | 9.0 | 0.00 | 1.17 | 0.92 | 83 | 1012.1 |
| 20260904214958 | 81 | 53 | 4.0 | 9.0 | 0.00 | 1.17 | 0.92 | 82 | 1012.1 |
| 20260904214457 | 82 | 35 | 4.0 | 8.0 | 0.00 | 1.17 | 0.92 | 81 | 1012.1 |
| 20260904214227 | 83 | 36 | 3.0 | 7.0 | 0.00 | 1.17 | 0.92 | 80 | 1012.0 |
| 20260904213455 | 83 | 65 | 2.0 | 7.0 | 0.00 | 1.17 | 0.92 | 78 | 1012.0 |
| 20260904212956 | 84 | 15 | 1.0 | 4.0 | 0.00 | 1.17 | 0.92 | 77 | 1012.0 |
| 20260904212452 | 84 | 172 | 1.0 | 4.0 | 0.00 | 1.17 | 0.92 | 76 | 1011.9 |
| 20260904211951 | 84 | 169 | 0.0 | 3.0 | 0.00 | 1.17 | 0.92 | 76 | 1011.8 |
| 20260904211450 | 84 | 219 | 0.0 | 2.0 | 0.00 | 1.17 | 0.92 | 76 | 1011.7 |
| 20260904210949 | 84 | 218 | 1.0 | 4.0 | 0.00 | 1.17 | 0.92 | 77 | 1011.7 |
| 20260904210447 | 84 | 220 | 3.0 | 5.0 | 0.00 | 1.17 | 0.92 | 77 | 1011.6 |
| 20260904205948 | 84 | 225 | 2.0 | 5.0 | 0.00 | 1.17 | 0.92 | 77 | 1011.6 |
| 20260904205713 | 84 | 5 | 2.0 | 4.0 | 0.00 | 1.17 | 0.92 | 78 | 1011.6 |
| 20260904204941 | 85 | 32 | 2.0 | 5.0 | 0.00 | 1.17 | 0.92 | 77 | 1011.6 |
| 20260904204438 | 85 | 33 | 2.0 | 5.0 | 0.00 | 1.17 | 0.92 | 77 | 1011.6 |
| 20260904203936 | 85 | 336 | 1.0 | 4.0 | 0.00 | 1.17 | 0.92 | 76 | 1011.5 |
| 20260904203438 | 85 | 334 | 3.0 | 8.0 | 0.00 | 1.17 | 0.92 | 76 | 1011.6 |
| 20260904203202 | 85 | 334 | 3.0 | 8.0 | 0.00 | 1.17 | 0.92 | 76 | 1011.7 |
| 20260904202432 | 85 | 315 | 2.0 | 8.0 | 0.00 | 1.17 | 0.92 | 74 | 1011.6 |
| 20260904202204 | 84 | 319 | 4.0 | 8.0 | 0.00 | 1.17 | 0.92 | 76 | 1011.6 |
| 20260904201431 | 84 | 328 | 4.0 | 8.0 | 0.00 | 1.17 | 0.92 | 76 | 1011.6 |
| 20260904200929 | 85 | 330 | 3.0 | 8.0 | 0.00 | 1.17 | 0.92 | 75 | 1011.7 |
| 20260904200431 | 85 | 295 | 3.0 | 7.0 | 0.00 | 1.17 | 0.92 | 75 | 1011.8 |
| 20260904195925 | 85 | 301 | 3.0 | 9.0 | 0.00 | 1.17 | 0.92 | 75 | 1011.9 |
| 20260904195423 | 84 | 293 | 3.0 | 9.0 | 0.00 | 1.17 | 0.92 | 75 | 1012.0 |
| 20260904194923 | 84 | 315 | 2.0 | 6.0 | 0.00 | 1.17 | 0.92 | 77 | 1012.1 |
| 20260904194424 | 84 | 191 | 2.0 | 5.0 | 0.00 | 1.17 | 0.92 | 76 | 1012.1 |
| 20260904193923 | 84 | 209 | 2.0 | 5.0 | 0.00 | 1.17 | 0.92 | 77 | 1012.2 |
| 20260904193656 | 83 | 130 | 1.0 | 3.0 | 0.00 | 1.17 | 0.92 | 79 | 1012.3 |
| 20260904193152 | 83 | 5 | 2.0 | 6.0 | 0.00 | 1.17 | 0.92 | 79 | 1012.4 |
| 20260904193034 | 83 | 144 | 3.0 | 7.0 | 0.00 | 1.17 | 0.92 | 80 | 1012.4 |
| 20260904191923 | 82 | 188 | 3.0 | 7.0 | 0.00 | 1.17 | 0.92 | 79 | 1012.5 |
| 20260904191651 | 82 | 167 | 2.0 | 6.0 | 0.00 | 1.17 | 0.92 | 79 | 1012.5 |
| 20260904190917 | 82 | 154 | 2.0 | 6.0 | 0.00 | 1.17 | 0.92 | 80 | 1012.5 |
| 20260904190418 | 82 | 134 | 2.0 | 7.0 | 0.00 | 1.17 | 0.92 | 80 | 1012.5 |
| 20260904185911 | 82 | 259 | 2.0 | 7.0 | 0.00 | 1.17 | 0.92 | 80 | 1012.6 |
| 20260904185413 | 82 | 245 | 3.0 | 6.0 | 0.00 | 1.17 | 0.92 | 82 | 1012.6 |
| 20260904184911 | 81 | 171 | 4.0 | 7.0 | 0.00 | 1.17 | 0.92 | 80 | 1012.7 |
| 20260904184412 | 81 | 174 | 4.0 | 7.0 | 0.00 | 1.17 | 0.92 | 80 | 1012.6 |
| 20260904183911 | 80 | 187 | 4.0 | 7.0 | 0.00 | 1.17 | 0.92 | 81 | 1012.7 |
| 20260904183415 | 80 | 163 | 4.0 | 8.0 | 0.00 | 1.17 | 0.92 | 82 | 1012.7 |
| 20260904182908 | 80 | 176 | 4.0 | 8.0 | 0.00 | 1.17 | 0.92 | 80 | 1012.6 |
| 20260904182640 | 80 | 184 | 4.0 | 7.0 | 0.00 | 1.17 | 0.92 | 83 | 1012.6 |
| 20260904181905 | 80 | 179 | 3.0 | 7.0 | 0.00 | 1.17 | 0.92 | 81 | 1012.6 |
| 20260904181408 | 79 | 218 | 4.0 | 8.0 | 0.00 | 1.17 | 0.92 | 83 | 1012.7 |
| 20260904180906 | 79 | 211 | 4.0 | 8.0 | 0.00 | 1.17 | 0.92 | 83 | 1012.7 |
| 20260904180407 | 79 | 180 | 3.0 | 7.0 | 0.00 | 1.17 | 0.92 | 82 | 1012.7 |
| 20260904175900 | 79 | 211 | 3.0 | 7.0 | 0.00 | 1.17 | 0.92 | 82 | 1012.7 |
| 20260904175359 | 79 | 177 | 3.0 | 6.0 | 0.00 | 1.17 | 0.92 | 83 | 1012.6 |
| 20260904174856 | 78 | 230 | 5.0 | 11.0 | 0.00 | 1.17 | 0.92 | 83 | 1012.6 |
| 20260904174353 | 78 | 185 | 6.0 | 11.0 | 0.00 | 1.17 | 0.92 | 83 | 1012.7 |
| 20260904173854 | 78 | 212 | 4.0 | 11.0 | 0.00 | 1.17 | 0.92 | 82 | 1012.7 |
| 20260904173351 | 79 | 185 | 3.0 | 11.0 | 0.00 | 1.17 | 0.92 | 83 | 1012.8 |
| 20260904172852 | 79 | 198 | 4.0 | 11.0 | 0.00 | 1.17 | 0.92 | 84 | 1012.8 |
| 20260904172624 | 78 | 225 | 3.0 | 9.0 | 0.00 | 1.17 | 0.92 | 83 | 1012.8 |
| 20260904171852 | 78 | 227 | 3.0 | 6.0 | 0.00 | 1.17 | 0.92 | 84 | 1012.8 |
| 20260904171351 | 78 | 229 | 3.0 | 6.0 | 0.00 | 1.17 | 0.92 | 86 | 1013.0 |
| 20260904170851 | 78 | 163 | 4.0 | 9.0 | 0.00 | 1.17 | 0.92 | 85 | 1013.0 |
| 20260904170352 | 78 | 191 | 4.0 | 9.0 | 0.00 | 1.17 | 0.92 | 85 | 1013.0 |
| 20260904165848 | 78 | 188 | 3.0 | 8.0 | 0.00 | 1.17 | 0.92 | 86 | 1013.1 |
| 20260904165347 | 77 | 244 | 3.0 | 8.0 | 0.00 | 1.17 | 0.92 | 85 | 1013.0 |
| 20260904164845 | 77 | 236 | 3.0 | 8.0 | 0.00 | 1.17 | 0.92 | 84 | 1012.9 |
| 20260904164617 | 77 | 132 | 3.0 | 7.0 | 0.00 | 1.17 | 0.92 | 85 | 1012.8 |
| 20260904163845 | 76 | 270 | 3.0 | 7.0 | 0.00 | 1.17 | 0.92 | 86 | 1012.8 |
| 20260904163346 | 76 | 314 | 2.0 | 7.0 | 0.00 | 1.17 | 0.92 | 87 | 1012.8 |
| 20260904162842 | 75 | 183 | 1.0 | 6.0 | 0.00 | 1.17 | 0.92 | 87 | 1012.8 |
| 20260904162342 | 75 | 222 | 1.0 | 4.0 | 0.00 | 1.17 | 0.92 | 88 | 1012.7 |
| 20260904161841 | 75 | 199 | 2.0 | 5.0 | 0.00 | 1.17 | 0.92 | 88 | 1012.7 |
| 20260904161340 | 74 | 197 | 3.0 | 6.0 | 0.00 | 1.17 | 0.92 | 89 | 1012.7 |
| 20260904160837 | 74 | 190 | 4.0 | 8.0 | 0.00 | 1.17 | 0.92 | 89 | 1012.7 |
| 20260904160338 | 73 | 183 | 6.0 | 11.0 | 0.00 | 1.17 | 0.92 | 89 | 1012.8 |
| 20260904155835 | 73 | 210 | 5.0 | 11.0 | 0.00 | 1.17 | 0.92 | 90 | 1012.8 |
| 20260904155607 | 73 | 223 | 5.0 | 11.0 | 0.00 | 1.18 | 0.92 | 91 | 1012.8 |
| 20260904154835 | 73 | 177 | 5.0 | 10.0 | 0.00 | 1.18 | 0.92 | 92 | 1012.8 |
| 20260904154606 | 72 | 181 | 4.0 | 9.0 | 0.00 | 1.18 | 0.92 | 93 | 1012.7 |
| 20260904153834 | 72 | 171 | 4.0 | 9.0 | 0.00 | 1.18 | 0.92 | 94 | 1012.7 |
| 20260904153607 | 71 | 205 | 4.0 | 8.0 | 0.00 | 1.21 | 0.92 | 95 | 1012.7 |
| 20260904152836 | 71 | 183 | 4.0 | 10.0 | 0.00 | 1.22 | 0.92 | 97 | 1012.8 |
| 20260904152333 | 70 | 202 | 4.0 | 10.0 | 0.00 | 1.22 | 0.92 | 97 | 1013.0 |
| 20260904151834 | 70 | 203 | 3.0 | 9.0 | 0.00 | 1.22 | 0.92 | 97 | 1012.9 |
| 20260904151333 | 70 | 194 | 3.0 | 8.0 | 0.00 | 1.22 | 0.92 | 97 | 1012.9 |
| 20260904150832 | 70 | 190 | 3.0 | 7.0 | 0.00 | 1.22 | 0.92 | 97 | 1013.0 |
| 20260904150333 | 69 | 186 | 4.0 | 9.0 | 0.00 | 1.22 | 0.92 | 97 | 1013.0 |
| 20260904145831 | 69 | 198 | 4.0 | 9.0 | 0.00 | 1.23 | 0.92 | 97 | 1012.9 |
| 20260904145332 | 69 | 154 | 4.0 | 8.0 | 0.00 | 1.23 | 0.92 | 98 | 1013.0 |
| 20260904144825 | 69 | 186 | 4.0 | 10.0 | 0.00 | 1.23 | 0.92 | 98 | 1013.1 |
| 20260904144324 | 69 | 188 | 4.0 | 10.0 | 0.00 | 1.23 | 0.92 | 98 | 1013.0 |
| 20260904143828 | 69 | 182 | 4.0 | 9.0 | 0.00 | 1.25 | 0.92 | 98 | 1012.9 |
| 20260904143325 | 69 | 178 | 5.0 | 10.0 | 0.00 | 1.26 | 0.92 | 98 | 1012.9 |
| 20260904142826 | 68 | 171 | 5.0 | 10.0 | 0.00 | 1.26 | 0.92 | 98 | 1012.9 |
| 20260904142329 | 68 | 205 | 5.0 | 8.0 | 0.00 | 1.26 | 0.92 | 98 | 1013.0 |
| 20260904142325 | 68 | 189 | 5.0 | 10.0 | 0.00 | 1.26 | 0.92 | 98 | 1012.9 |
| 20260904141551 | 68 | 180 | 6.0 | 13.0 | 0.00 | 1.33 | 0.92 | 98 | 1013.0 |
| 20260904140821 | 68 | 186 | 6.0 | 13.0 | 0.00 | 1.37 | 0.92 | 98 | 1013.1 |
| 20260904140323 | 68 | 167 | 6.0 | 16.0 | 0.00 | 1.37 | 0.92 | 98 | 1013.1 |
| 20260904135820 | 68 | 163 | 6.0 | 16.0 | 0.00 | 1.37 | 0.92 | 98 | 1013.1 |
| 20260904135321 | 68 | 182 | 4.0 | 10.0 | 0.00 | 1.37 | 0.92 | 98 | 1013.1 |
| 20260904135053 | 68 | 182 | 3.0 | 9.0 | 0.00 | 1.37 | 0.92 | 98 | 1012.7 |
| 20260904134318 | 68 | 154 | 2.0 | 6.0 | 0.00 | 1.37 | 0.92 | 98 | 1012.6 |
| 20260904133817 | 68 | 159 | 3.0 | 9.0 | 0.00 | 1.37 | 0.92 | 98 | 1012.8 |
| 20260904133319 | 68 | 171 | 3.0 | 9.0 | 0.00 | 1.37 | 0.92 | 98 | 1012.9 |
| 20260904132817 | 68 | 186 | 3.0 | 9.0 | 0.00 | 1.37 | 0.92 | 98 | 1013.1 |
| 20260904132316 | 68 | 162 | 2.0 | 9.0 | 0.00 | 1.37 | 0.92 | 98 | 1013.3 |
| 20260904131818 | 68 | 162 | 3.0 | 10.0 | 0.00 | 1.37 | 0.92 | 98 | 1013.3 |
| 20260904131313 | 68 | 185 | 6.0 | 11.0 | 0.00 | 1.37 | 0.92 | 98 | 1013.3 |
| 20260904130813 | 68 | 205 | 6.0 | 13.0 | 0.00 | 1.37 | 0.92 | 98 | 1013.4 |
| 20260904130314 | 68 | 163 | 5.0 | 13.0 | 0.00 | 1.37 | 0.92 | 98 | 1013.4 |
| 20260904125813 | 68 | 202 | 5.0 | 10.0 | 0.00 | 1.37 | 0.92 | 98 | 1013.7 |
| 20260904125313 | 68 | 165 | 4.0 | 11.0 | 0.00 | 1.37 | 0.92 | 98 | 1013.5 |
| 20260904124815 | 68 | 165 | 5.0 | 15.0 | 0.00 | 1.37 | 0.92 | 98 | 1013.5 |
| 20260904124309 | 68 | 165 | 7.0 | 15.0 | 0.00 | 1.37 | 0.92 | 98 | 1013.6 |
| 20260904124041 | 68 | 175 | 5.0 | 14.0 | 0.00 | 1.37 | 0.92 | 98 | 1013.7 |
| 20260904123310 | 68 | 186 | 4.0 | 9.0 | 0.00 | 1.37 | 0.92 | 98 | 1013.2 |
| 20260904122810 | 68 | 157 | 4.0 | 9.0 | 0.01 | 1.37 | 0.92 | 98 | 1012.6 |
| 20260904122309 | 68 | 131 | 6.0 | 11.0 | 0.06 | 1.37 | 0.92 | 98 | 1012.4 |
| 20260904121810 | 68 | 134 | 6.0 | 11.0 | 0.07 | 1.37 | 0.92 | 98 | 1012.6 |
| 20260904121306 | 68 | 135 | 6.0 | 14.0 | 0.07 | 1.37 | 0.92 | 98 | 1012.8 |
| 20260904120805 | 68 | 137 | 7.0 | 14.0 | 0.08 | 1.37 | 0.92 | 98 | 1012.5 |
| 20260904120536 | 68 | 135 | 5.0 | 11.0 | 0.08 | 1.37 | 0.92 | 98 | 1012.5 |
| 20260904115805 | 68 | 174 | 6.0 | 14.0 | 0.08 | 1.37 | 0.92 | 98 | 1013.2 |
| 20260904115306 | 68 | 158 | 6.0 | 14.0 | 0.08 | 1.37 | 0.92 | 98 | 1012.9 |
| 20260904114806 | 68 | 157 | 6.0 | 14.0 | 0.08 | 1.37 | 0.92 | 98 | 1012.8 |
| 20260904114305 | 68 | 140 | 5.0 | 14.0 | 0.09 | 1.37 | 0.92 | 98 | 1012.9 |
| 20260904113803 | 68 | 157 | 6.0 | 15.0 | 0.10 | 1.37 | 0.92 | 98 | 1012.8 |
| 20260904113303 | 68 | 162 | 7.0 | 15.0 | 0.11 | 1.37 | 0.92 | 98 | 1012.8 |
| 20260904112802 | 69 | 134 | 7.0 | 12.0 | 0.12 | 1.36 | 0.91 | 98 | 1012.8 |
| 20260904112305 | 69 | 181 | 6.0 | 13.0 | 0.08 | 1.31 | 0.87 | 98 | 1013.1 |
| 20260904111804 | 69 | 139 | 5.0 | 14.0 | 0.11 | 1.30 | 0.85 | 98 | 1013.2 |
| 20260904111531 | 69 | 159 | 6.0 | 14.0 | 0.19 | 1.30 | 0.85 | 98 | 1013.2 |
| 20260904110802 | 69 | 143 | 6.0 | 15.0 | 0.30 | 1.29 | 0.84 | 98 | 1013.2 |
| 20260904110259 | 69 | 137 | 5.0 | 15.0 | 0.31 | 1.29 | 0.84 | 98 | 1013.5 |
| 20260904105758 | 69 | 167 | 4.0 | 11.0 | 0.31 | 1.29 | 0.84 | 98 | 1013.8 |
| 20260904105530 | 69 | 169 | 3.0 | 7.0 | 0.31 | 1.29 | 0.84 | 98 | 1013.5 |
| 20260904104759 | 69 | 136 | 4.0 | 11.0 | 0.31 | 1.29 | 0.84 | 98 | 1013.5 |
| 20260904104259 | 69 | 119 | 5.0 | 11.0 | 0.31 | 1.28 | 0.83 | 98 | 1013.0 |
| 20260904103754 | 69 | 131 | 4.0 | 10.0 | 0.30 | 1.27 | 0.82 | 98 | 1012.8 |
| 20260904103253 | 69 | 136 | 5.0 | 10.0 | 0.29 | 1.26 | 0.81 | 98 | 1013.1 |
| 20260904102752 | 69 | 121 | 5.0 | 11.0 | 0.27 | 1.24 | 0.79 | 98 | 1013.1 |
| 20260904102251 | 69 | 130 | 5.0 | 11.0 | 0.27 | 1.23 | 0.78 | 98 | 1013.1 |
| 20260904101751 | 69 | 143 | 5.0 | 11.0 | 0.23 | 1.19 | 0.75 | 98 | 1013.0 |
| 20260904101249 | 69 | 133 | 5.0 | 11.0 | 0.17 | 1.11 | 0.66 | 98 | 1013.2 |
| 20260904100747 | 69 | 137 | 5.0 | 10.0 | 0.09 | 0.98 | 0.54 | 98 | 1013.5 |
| 20260904100245 | 69 | 188 | 5.0 | 10.0 | 0.15 | 0.98 | 0.53 | 98 | 1013.8 |